Monte Scuro, Italy

5:38 PM CEST on May 28, 2017 (GMT +0200)
Monte Scuro

Weather History for LIBQ - January, 2013

Change the Weather History Date:

Friday, January 11, 2013

  Actual Average Record
Temperature  
Mean Temperature 32 °F -  
Max Temperature 35 °F 36 °F 51 °F (2002)
Min Temperature 30 °F 28 °F 21 °F (2017)
Degree Days  
Heating Degree Days 32    
Moisture  
Dew Point 33 °F    
Average Humidity 100    
Maximum Humidity 100    
Minimum Humidity 97    
Precipitation  
Precipitation 0.20 in 0.12 in - ()
Sea Level Pressure  
Sea Level Pressure 29.69 in    
Wind  
Wind Speed 16 mph ()    
Max Wind Speed 29 mph    
Max Gust Speed -    
Visibility 0.0 miles    
Events Fog , Rain , Snow    
Averages and records for this station are not official NWS values.
T = Trace of Precipitation, MM = Missing Value Source: Averaged Metar Reports

Daily Weather History Graph

Daily Weather History Graph

Search for Another Location

Airport or City:

Trip Planner

Search our weather history database for the weather conditions in past years. The results will help you decide how hot, cold, wet, or windy it might be!

Date:

Astronomy

Jan. 11, 2013 Rise Set
Actual Time 7:13 AM CET 4:51 PM CET
Civil Twilight 6:44 AM CET 5:20 PM CET
Nautical Twilight 6:10 AM CET 5:54 PM CET
Astronomical Twilight 5:38 AM CET 6:26 PM CET
Moon 6:32 AM CET (1/11) 4:48 PM CET (1/11)
Length of Visible Light 10h 36m
Length of Day
9h 37m
Waning Crescent, 0% of the Moon is Illuminated
Jan 11
Waning Crescent
Jan 11
New
Jan 19
First Quarter
Jan 27
Full
Feb 3
Last Quarter

Hourly Weather History & Observations

Time (CET) Temp. Windchill Dew Point Humidity Pressure Visibility Wind Dir Wind Speed Gust Speed Precip Events Conditions
12:55 AM 33.8 °F 23.2 °F 33.8 °F 100% 29.71 in 0.0 mi SW 17.3 mph - N/A Fog Fog
1:00 AM 34 °F - 34 °F 99%  in 0 mi SW 17.3 mph - - Fog Heavy Fog
1:55 AM 33.8 °F 23.2 °F 33.8 °F 100% 29.71 in 0.0 mi SW 17.3 mph - N/A Fog Fog
2:55 AM 32.0 °F 23.0 °F 32.0 °F 100% 29.71 in 0.0 mi SSW 11.5 mph - N/A Fog Light Freezing Fog
3:55 AM 32.0 °F 23.0 °F 32.0 °F 100% 29.71 in 0.0 mi SSW 11.5 mph - N/A Fog Light Freezing Fog
4:00 AM 32 °F - 32 °F 100%  in 0 mi SSW 11.5 mph - - Fog Heavy Fog
4:55 AM 32.0 °F 23.0 °F 32.0 °F 100% 29.71 in 0.0 mi SSW 11.5 mph - N/A Fog Light Freezing Fog
5:55 AM 32.0 °F 20.8 °F 32.0 °F 100% 29.71 in 0.0 mi WSW 17.3 mph - N/A Fog Light Freezing Fog
6:55 AM 32.0 °F 20.8 °F 32.0 °F 100% 29.71 in 0.0 mi SW 17.3 mph - N/A Fog Light Freezing Fog
7:55 AM 32.0 °F 20.8 °F 32.0 °F 100% 29.71 in 0.0 mi SW 17.3 mph - N/A Fog Light Freezing Fog
8:55 AM 32.0 °F 20.8 °F 32.0 °F 100% 29.71 in 0.0 mi SSW 17.3 mph - N/A Fog Light Freezing Fog
9:55 AM 32.0 °F 20.8 °F 32.0 °F 100% 29.71 in 0.0 mi SSW 17.3 mph - N/A Fog Light Freezing Fog
10:00 AM 32 °F - 32 °F 100%  in 0 mi SSW 17.3 mph - - Fog Heavy Fog
10:55 AM 32.0 °F 19.8 °F 32.0 °F 100% 29.74 in 0.0 mi SSW 20.7 mph - N/A Fog Light Freezing Fog
11:55 AM 32.0 °F 19.8 °F 32.0 °F 100% 29.74 in 0.0 mi West 20.7 mph - N/A Fog Light Freezing Fog
1:00 PM 33 °F - 33 °F 100%  in 0 mi West 17.3 mph - - Fog Heavy Fog
1:55 PM 33.8 °F 23.2 °F 33.8 °F 100% 29.71 in 0.0 mi West 17.3 mph - N/A Fog Light Freezing Fog
2:55 PM 33.8 °F 23.2 °F 33.8 °F 100% 29.71 in 0.0 mi West 17.3 mph - N/A Fog Light Freezing Fog
3:55 PM 35.6 °F 26.6 °F 35.6 °F 100% 29.71 in 0.0 mi West 13.8 mph - N/A Fog , Rain Light Rain
4:00 PM 35 °F - 35 °F 100%  in 0 mi West 13.8 mph - - Rain Light Rain
4:55 PM 35.6 °F 24.5 °F 35.6 °F 100% 29.68 in 0.0 mi West 20.7 mph - N/A Fog , Rain Light Rain
5:55 PM 35.6 °F 24.0 °F 35.6 °F 100% 29.65 in 0.0 mi West 23.0 mph - N/A Fog , Rain Light Rain
6:55 PM 33.8 °F 20.3 °F 33.8 °F 100% 29.65 in 0.0 mi West 28.8 mph - N/A Fog , Rain Light Rain
7:00 PM 33 °F - 33 °F 100%  in 0 mi West 28.8 mph - - Rain Light Rain
7:55 PM 32.0 °F 19.2 °F 32.0 °F 100% 29.59 in - West 23.0 mph - N/A Fog Light Freezing Fog
8:55 PM 32.0 °F 19.2 °F 32.0 °F 100% 29.59 in - West 23.0 mph - N/A Fog Light Freezing Fog
9:55 PM 30.2 °F 16.8 °F 30.2 °F 100% 29.65 in - West 23.0 mph - N/A Fog Light Freezing Fog
10:00 PM 31 °F - 31 °F 97%  in 0 mi West 23.0 mph - - Snow Light Snow
10:55 PM 32.0 °F 19.2 °F 32.0 °F 100% 29.62 in - West 23.0 mph - N/A Fog Light Freezing Fog
11:55 PM 32.0 °F 18.6 °F 32.0 °F 100% 29.62 in - West 25.3 mph - N/A Fog Light Freezing Fog